Sarfaq Ittuk — OWDD — position and weather

sailwx.info

Track history (hours):
 
Tides and Currents Weather Stations Pressure Air Temp Water Temp Dewpoint Dewpoint Depression Visibility Wind Speed Wind Dir Waves Ship Positions

Sarfaq Ittuk

Last reported at 2018-May-22 14:49 UTC. Time now 2018-May-24 15:47 UTC.
Position N 63°26' W 051°31'.

Length 73 m; beam 11.1 m; draft 3.7 m.

Type: Passenger vessel. MMSI: 331000499.

Date/timePositionNaut miles runAvg speedWind from/ knotsBaromVisibWave heightAir tempDewpointWater temp
2018-May-22 14:49N 63°26' W 051°31'1712.0
2018-May-22 13:23N 63°43' W 051°37'512.4
2018-May-22 13:01N 63°48' W 051°35'812.8
2018-May-22 12:25N 63°55' W 051°34'512.6
2018-May-22 12:00N 63°60' W 051°41'611.6
2018-May-22 11:30N 64°06' W 051°39'510.2
2018-May-22 11:00N 64°10' W 051°43'0 0.0
2018-May-22 10:30N 64°10' W 051°43'0 0.0
2018-May-22 10:00N 64°10' W 051°43'0 0.0
2018-May-22 09:30N 64°10' W 051°43'0 0.0
2018-May-22 09:00N 64°10' W 051°43'2 4.9
2018-May-22 08:31N 64°09' W 051°47'510.4
2018-May-22 08:00N 64°06' W 051°58'510.2
2018-May-22 07:30N 64°04' W 052°08'5 9.5
2018-May-22 07:00N 64°07' W 052°16'510.0
2018-May-22 06:31N 64°11' W 052°22'611.3
2018-May-22 06:00N 64°17' W 052°26'713.0
2018-May-22 05:30N 64°23' W 052°30'613.0
2018-May-22 05:00N 64°29' W 052°33'613.0
2018-May-22 04:30N 64°36' W 052°36'612.8
2018-May-22 04:00N 64°42' W 052°38'612.3
2018-May-22 03:30N 64°48' W 052°41'612.4
2018-May-22 03:00N 64°54' W 052°44'612.7
2018-May-22 02:31N 65°00' W 052°46'612.8
2018-May-22 02:00N 65°07' W 052°49'612.7
2018-May-22 01:30N 65°13' W 052°51'612.7
2018-May-22 01:01N 65°19' W 052°51'6 3.8
2018-May-21 23:31N 65°25' W 052°54'0 0.4
2018-May-21 23:30N 65°25' W 052°54'19 8.6
2018-May-21 21:19N 65°40' W 053°20'412.2
2018-May-21 21:00N 65°44' W 053°19'11 7.2
2018-May-21 19:24N 65°54' W 053°34'  
2018-May-19 06:47N 65°05' W 052°49'3 9.6
2018-May-19 06:30N 65°03' W 052°48'510.2
2018-May-19 06:00N 64°58' W 052°45'510.4
2018-May-19 05:30N 64°53' W 052°43'510.4
2018-May-19 05:00N 64°47' W 052°41'5 9.9
2018-May-19 04:30N 64°43' W 052°39'5 9.9
2018-May-19 04:00N 64°38' W 052°36'510.1
2018-May-19 03:30N 64°33' W 052°34'510.1
2018-May-19 03:01N 64°28' W 052°32'510.1
2018-May-19 02:30N 64°23' W 052°30'510.1
2018-May-19 02:00N 64°18' W 052°27'510.1
2018-May-19 01:30N 64°13' W 052°24'5 9.8
2018-May-19 01:00N 64°09' W 052°19'510.3
2018-May-19 00:30N 64°05' W 052°12'4 8.7
2018-May-19 00:00N 64°05' W 052°02'510.7
2018-May-18 23:30N 64°08' W 051°51'4 8.5
2018-May-18 23:00N 64°10' W 051°43'0 0.0
2018-May-18 22:30N 64°10' W 051°43'0 0.0
2018-May-18 22:00N 64°10' W 051°43'0 0.0
2018-May-18 21:30N 64°10' W 051°43'0 0.0
2018-May-18 21:00N 64°10' W 051°43'0 0.0
2018-May-18 20:31N 64°10' W 051°43'0 0.0
2018-May-18 20:00N 64°10' W 051°43'0 0.0
2018-May-18 19:30N 64°10' W 051°43'0 0.0
2018-May-18 19:00N 64°10' W 051°43'0 0.0
2018-May-18 18:31N 64°10' W 051°43'0 0.0
2018-May-18 18:00N 64°10' W 051°43'0 0.0
2018-May-18 17:30N 64°10' W 051°43'0 0.0
2018-May-18 17:00N 64°10' W 051°43'0 0.0
2018-May-18 16:30N 64°10' W 051°43'0 0.0
2018-May-18 16:00N 64°10' W 051°43'0 0.0
2018-May-18 15:30N 64°10' W 051°43'0 0.0
2018-May-18 15:00N 64°10' W 051°43'0 0.0
2018-May-18 14:30N 64°10' W 051°43'0 0.0
2018-May-18 14:00N 64°10' W 051°43'0 0.0
2018-May-18 13:30N 64°10' W 051°43'0 0.0
2018-May-18 13:00N 64°10' W 051°43'0 0.0
2018-May-18 12:30N 64°10' W 051°43'0 0.0
2018-May-18 12:00N 64°10' W 051°43'0 0.0
2018-May-18 11:30N 64°10' W 051°43'0 0.0
2018-May-18 11:00N 64°10' W 051°43'0 0.0
2018-May-18 10:30N 64°10' W 051°43'0 0.0
2018-May-18 10:00N 64°10' W 051°43'0 0.0
2018-May-18 09:30N 64°10' W 051°43'1 2.2
2018-May-18 09:00N 64°09' W 051°43'4 7.5
2018-May-18 08:30N 64°06' W 051°39'4 8.7
2018-May-18 08:00N 64°01' W 051°40'5 9.2
2018-May-18 07:30N 63°57' W 051°37'4 8.7
2018-May-18 07:00N 63°53' W 051°34'5 9.1
2018-May-18 06:30N 63°48' W 051°35'5 9.3
2018-May-18 06:00N 63°44' W 051°36'  
2018-May-15 15:43N 63°29' W 051°34'1512.3
2018-May-15 14:30N 63°44' W 051°36'713.2
2018-May-15 13:59N 63°50' W 051°34'612.6
2018-May-15 13:30N 63°56' W 051°36'612.2
2018-May-15 13:01N 64°02' W 051°39'612.4
2018-May-15 12:30N 64°08' W 051°41'2 4.1
2018-May-15 12:00N 64°10' W 051°43'0 0.0
2018-May-15 11:31N 64°10' W 051°43'0 0.0
2018-May-15 11:00N 64°10' W 051°43'0 0.0
2018-May-15 10:30N 64°10' W 051°43'0 0.0
2018-May-15 10:00N 64°10' W 051°43'0 0.0
2018-May-15 09:30N 64°10' W 051°43'0 0.0
2018-May-15 09:01N 64°10' W 051°43'3 5.1
2018-May-15 08:30N 64°09' W 051°48'5 9.8
2018-May-15 08:00N 64°06' W 051°58'510.6
2018-May-15 07:30N 64°04' W 052°08'611.6
2018-May-15 07:01N 64°08' W 052°18'611.6
2018-May-15 06:30N 64°13' W 052°24'612.0
2018-May-15 06:00N 64°19' W 052°27'611.9
2018-May-15 05:31N 64°24' W 052°31'612.1
2018-May-15 05:00N 64°30' W 052°33'612.3
2018-May-15 04:30N 64°36' W 052°36'612.4
2018-May-15 04:00N 64°43' W 052°39'612.5
2018-May-15 03:31N 64°49' W 052°41'612.4
2018-May-15 03:00N 64°55' W 052°44'612.6
2018-May-15 02:30N 65°01' W 052°47'612.6
2018-May-15 02:00N 65°07' W 052°50'38 7.2
2018-May-14 20:40N 65°43' W 053°20'  
Track history (hours):
 
Tides and Currents Weather Stations Pressure Air Temp Water Temp Dewpoint Dewpoint Depression Visibility Wind Speed Wind Dir Waves Ship Positions

Sarfaq Ittuk

Last reported at 2018-May-22 14:49 UTC. Time now 2018-May-24 15:47 UTC.
Position N 63°26' W 051°31'.

Length 73 m; beam 11.1 m; draft 3.7 m.

Type: Passenger vessel. MMSI: 331000499.

Date/timePositionNaut miles runAvg speedWind from/ knotsBaromVisibWave heightAir tempDewpointWater temp
2018-May-22 14:49N 63°26' W 051°31'1712.0
2018-May-22 13:23N 63°43' W 051°37'512.4
2018-May-22 13:01N 63°48' W 051°35'812.8
2018-May-22 12:25N 63°55' W 051°34'512.6
2018-May-22 12:00N 63°60' W 051°41'611.6
2018-May-22 11:30N 64°06' W 051°39'510.2
2018-May-22 11:00N 64°10' W 051°43'0 0.0
2018-May-22 10:30N 64°10' W 051°43'0 0.0
2018-May-22 10:00N 64°10' W 051°43'0 0.0
2018-May-22 09:30N 64°10' W 051°43'0 0.0
2018-May-22 09:00N 64°10' W 051°43'2 4.9
2018-May-22 08:31N 64°09' W 051°47'510.4
2018-May-22 08:00N 64°06' W 051°58'510.2
2018-May-22 07:30N 64°04' W 052°08'5 9.5
2018-May-22 07:00N 64°07' W 052°16'510.0
2018-May-22 06:31N 64°11' W 052°22'611.3
2018-May-22 06:00N 64°17' W 052°26'713.0
2018-May-22 05:30N 64°23' W 052°30'613.0
2018-May-22 05:00N 64°29' W 052°33'613.0
2018-May-22 04:30N 64°36' W 052°36'612.8
2018-May-22 04:00N 64°42' W 052°38'612.3
2018-May-22 03:30N 64°48' W 052°41'612.4
2018-May-22 03:00N 64°54' W 052°44'612.7
2018-May-22 02:31N 65°00' W 052°46'612.8
2018-May-22 02:00N 65°07' W 052°49'612.7
2018-May-22 01:30N 65°13' W 052°51'612.7
2018-May-22 01:01N 65°19' W 052°51'6 3.8
2018-May-21 23:31N 65°25' W 052°54'0 0.4
2018-May-21 23:30N 65°25' W 052°54'19 8.6
2018-May-21 21:19N 65°40' W 053°20'412.2
2018-May-21 21:00N 65°44' W 053°19'11 7.2
2018-May-21 19:24N 65°54' W 053°34'  
2018-May-19 06:47N 65°05' W 052°49'3 9.6
2018-May-19 06:30N 65°03' W 052°48'510.2
2018-May-19 06:00N 64°58' W 052°45'510.4
2018-May-19 05:30N 64°53' W 052°43'510.4
2018-May-19 05:00N 64°47' W 052°41'5 9.9
2018-May-19 04:30N 64°43' W 052°39'5 9.9
2018-May-19 04:00N 64°38' W 052°36'510.1
2018-May-19 03:30N 64°33' W 052°34'510.1
2018-May-19 03:01N 64°28' W 052°32'510.1
2018-May-19 02:30N 64°23' W 052°30'510.1
2018-May-19 02:00N 64°18' W 052°27'510.1
2018-May-19 01:30N 64°13' W 052°24'5 9.8
2018-May-19 01:00N 64°09' W 052°19'510.3
2018-May-19 00:30N 64°05' W 052°12'4 8.7
2018-May-19 00:00N 64°05' W 052°02'510.7
2018-May-18 23:30N 64°08' W 051°51'4 8.5
2018-May-18 23:00N 64°10' W 051°43'0 0.0
2018-May-18 22:30N 64°10' W 051°43'0 0.0
2018-May-18 22:00N 64°10' W 051°43'0 0.0
2018-May-18 21:30N 64°10' W 051°43'0 0.0
2018-May-18 21:00N 64°10' W 051°43'0 0.0
2018-May-18 20:31N 64°10' W 051°43'0 0.0
2018-May-18 20:00N 64°10' W 051°43'0 0.0
2018-May-18 19:30N 64°10' W 051°43'0 0.0
2018-May-18 19:00N 64°10' W 051°43'0 0.0
2018-May-18 18:31N 64°10' W 051°43'0 0.0
2018-May-18 18:00N 64°10' W 051°43'0 0.0
2018-May-18 17:30N 64°10' W 051°43'0 0.0
2018-May-18 17:00N 64°10' W 051°43'0 0.0
2018-May-18 16:30N 64°10' W 051°43'0 0.0
2018-May-18 16:00N 64°10' W 051°43'0 0.0
2018-May-18 15:30N 64°10' W 051°43'0 0.0
2018-May-18 15:00N 64°10' W 051°43'0 0.0
2018-May-18 14:30N 64°10' W 051°43'0 0.0
2018-May-18 14:00N 64°10' W 051°43'0 0.0
2018-May-18 13:30N 64°10' W 051°43'0 0.0
2018-May-18 13:00N 64°10' W 051°43'0 0.0
2018-May-18 12:30N 64°10' W 051°43'0 0.0
2018-May-18 12:00N 64°10' W 051°43'0 0.0
2018-May-18 11:30N 64°10' W 051°43'0 0.0
2018-May-18 11:00N 64°10' W 051°43'0 0.0
2018-May-18 10:30N 64°10' W 051°43'0 0.0
2018-May-18 10:00N 64°10' W 051°43'0 0.0
2018-May-18 09:30N 64°10' W 051°43'1 2.2
2018-May-18 09:00N 64°09' W 051°43'4 7.5
2018-May-18 08:30N 64°06' W 051°39'4 8.7
2018-May-18 08:00N 64°01' W 051°40'5 9.2
2018-May-18 07:30N 63°57' W 051°37'4 8.7
2018-May-18 07:00N 63°53' W 051°34'5 9.1
2018-May-18 06:30N 63°48' W 051°35'5 9.3
2018-May-18 06:00N 63°44' W 051°36'  
2018-May-15 15:43N 63°29' W 051°34'1512.3
2018-May-15 14:30N 63°44' W 051°36'713.2
2018-May-15 13:59N 63°50' W 051°34'612.6
2018-May-15 13:30N 63°56' W 051°36'612.2
2018-May-15 13:01N 64°02' W 051°39'612.4
2018-May-15 12:30N 64°08' W 051°41'2 4.1
2018-May-15 12:00N 64°10' W 051°43'0 0.0
2018-May-15 11:31N 64°10' W 051°43'0 0.0
2018-May-15 11:00N 64°10' W 051°43'0 0.0
2018-May-15 10:30N 64°10' W 051°43'0 0.0
2018-May-15 10:00N 64°10' W 051°43'0 0.0
2018-May-15 09:30N 64°10' W 051°43'0 0.0
2018-May-15 09:01N 64°10' W 051°43'3 5.1
2018-May-15 08:30N 64°09' W 051°48'5 9.8
2018-May-15 08:00N 64°06' W 051°58'510.6
2018-May-15 07:30N 64°04' W 052°08'611.6
2018-May-15 07:01N 64°08' W 052°18'611.6
2018-May-15 06:30N 64°13' W 052°24'612.0
2018-May-15 06:00N 64°19' W 052°27'611.9
2018-May-15 05:31N 64°24' W 052°31'612.1
2018-May-15 05:00N 64°30' W 052°33'612.3
2018-May-15 04:30N 64°36' W 052°36'612.4
2018-May-15 04:00N 64°43' W 052°39'612.5
2018-May-15 03:31N 64°49' W 052°41'612.4
2018-May-15 03:00N 64°55' W 052°44'612.6
2018-May-15 02:30N 65°01' W 052°47'612.6
2018-May-15 02:00N 65°07' W 052°50'38 7.2
2018-May-14 20:40N 65°43' W 053°20'  

Dump ship's entire track history